Previsão horária em Brasília

Hoje, 3 Março, Quarta-feira

Tempo Temperatura Precipitação Vento Pressão Humidade
00:00 +19°C° 0.5 mm 2 m/s 666 mmHg 92%
01:00 +19°C° 0 mm 2 m/s 666 mmHg 92%
02:00 +19°C° 0 mm 2 m/s 665 mmHg 93%
03:00 +18°C° 0 mm 2 m/s 665 mmHg 93%
04:00 +18°C° 0 mm 2 m/s 665 mmHg 93%
05:00 +18°C° 0 mm 2 m/s 665 mmHg 92%
06:00 +18°C° 0 mm 2 m/s 666 mmHg 92%
07:00 +19°C° 0 mm 2 m/s 666 mmHg 89%
08:00 +20°C° 0 mm 3 m/s 667 mmHg 87%
09:00 +21°C° 0 mm 4 m/s 668 mmHg 84%
10:00 +22°C° 0 mm 4 m/s 668 mmHg 79%
11:00 +25°C° 0 mm 4 m/s 668 mmHg 74%
12:00 +26°C° 0 mm 4 m/s 669 mmHg 68%
13:00 +26°C° 0.3 mm 4 m/s 668 mmHg 69%
14:00 +26°C° 0.3 mm 3 m/s 667 mmHg 70%
15:00 +26°C° 0.3 mm 3 m/s 666 mmHg 70%
16:00 +25°C° 0.4 mm 3 m/s 666 mmHg 75%
17:00 +24°C° 0.4 mm 2 m/s 665 mmHg 80%
18:00 +23°C° 0.4 mm 2 m/s 665 mmHg 84%
19:00 +21°C° 0.1 mm 2 m/s 665 mmHg 86%
20:00 +21°C° 0.1 mm 2 m/s 666 mmHg 88%
21:00 +21°C° 0.1 mm 1 m/s 666 mmHg 90%
22:00 +19°C° 0 mm 2 m/s 666 mmHg 91%
23:00 +19°C° 0 mm 2 m/s 666 mmHg 91%

Amanhã, 4 Março, Quinta-feira

Tempo Temperatura Precipitação Vento Pressão Humidade
00:00 +19°C° 0 mm 2 m/s 667 mmHg 91%
01:00 +19°C° 0 mm 2 m/s 666 mmHg 91%
02:00 +18°C° 0 mm 2 m/s 666 mmHg 90%
03:00 +18°C° 0 mm 2 m/s 665 mmHg 89%
04:00 +19°C° 0 mm 1 m/s 665 mmHg 88%
05:00 +19°C° 0 mm 1 m/s 665 mmHg 88%
06:00 +18°C° 0 mm 1 m/s 665 mmHg 87%
07:00 +20°C° 0 mm 1 m/s 666 mmHg 83%
08:00 +20°C° 0 mm 2 m/s 667 mmHg 79%
09:00 +21°C° 0 mm 2 m/s 668 mmHg 75%
10:00 +24°C° 0 mm 2 m/s 668 mmHg 71%
11:00 +25°C° 0 mm 2 m/s 668 mmHg 67%
12:00 +26°C° 0 mm 2 m/s 668 mmHg 63%
13:00 +26°C° 0 mm 2 m/s 667 mmHg 64%
14:00 +26°C° 0 mm 2 m/s 667 mmHg 64%
15:00 +26°C° 0 mm 2 m/s 666 mmHg 65%
16:00 +26°C° 0.2 mm 2 m/s 665 mmHg 69%
17:00 +25°C° 0.2 mm 1 m/s 665 mmHg 74%
18:00 +24°C° 0.2 mm 1 m/s 664 mmHg 79%
19:00 +23°C° 0.1 mm 1 m/s 665 mmHg 81%
20:00 +22°C° 0.1 mm 1 m/s 665 mmHg 83%
21:00 +21°C° 0.1 mm 1 m/s 665 mmHg 84%
22:00 +20°C° 0 mm 1 m/s 665 mmHg 85%
23:00 +20°C° 0 mm 1 m/s 665 mmHg 86%

Depois de amanhã, 5 Março, Sexta-feira

Tempo Temperatura Precipitação Vento Pressão Humidade
00:00 +20°C° 0 mm 1 m/s 665 mmHg 86%
01:00 +19°C° 0 mm 1 m/s 665 mmHg 87%
02:00 +19°C° 0 mm 1 m/s 664 mmHg 87%
03:00 +19°C° 0 mm 1 m/s 664 mmHg 88%
04:00 +19°C° 0 mm 1 m/s 664 mmHg 87%
05:00 +19°C° 0 mm 1 m/s 664 mmHg 87%
06:00 +18°C° 0 mm 1 m/s 664 mmHg 86%
07:00 +20°C° 0 mm 1 m/s 665 mmHg 82%
08:00 +22°C° 0 mm 1 m/s 666 mmHg 77%
09:00 +24°C° 0 mm 2 m/s 666 mmHg 73%
10:00 +25°C° 0.2 mm 2 m/s 666 mmHg 70%
11:00 +26°C° 0.2 mm 2 m/s 666 mmHg 67%
12:00 +27°C° 0.2 mm 3 m/s 666 mmHg 64%
13:00 +27°C° 0.7 mm 3 m/s 666 mmHg 66%
14:00 +27°C° 0.7 mm 3 m/s 665 mmHg 68%
15:00 +27°C° 0.7 mm 3 m/s 664 mmHg 69%
16:00 +26°C° 0.9 mm 2 m/s 664 mmHg 74%
17:00 +25°C° 0.9 mm 2 m/s 663 mmHg 80%
18:00 +24°C° 0.9 mm 1 m/s 663 mmHg 85%
19:00 +23°C° 0.2 mm 1 m/s 663 mmHg 85%
20:00 +22°C° 0.2 mm 1 m/s 664 mmHg 86%
21:00 +21°C° 0.2 mm 1 m/s 664 mmHg 87%
22:00 +21°C° 0.1 mm 1 m/s 664 mmHg 87%
23:00 +21°C° 0.1 mm 1 m/s 664 mmHg 87%

6 Março, Sábado

Tempo Temperatura Precipitação Vento Pressão Humidade
00:00 +20°C° 0.1 mm 1 m/s 665 mmHg 87%
01:00 +20°C° 0.2 mm 1 m/s 664 mmHg 87%
02:00 +20°C° 0.2 mm 1 m/s 664 mmHg 87%
03:00 +20°C° 0.2 mm 1 m/s 664 mmHg 87%
04:00 +18°C° 0.3 mm 0 m/s 664 mmHg 87%
05:00 +18°C° 0.3 mm 0 m/s 664 mmHg 86%
06:00 +18°C° 0.3 mm 0 m/s 664 mmHg 86%
07:00 +22°C° 0.1 mm 1 m/s 665 mmHg 83%
08:00 +23°C° 0.1 mm 1 m/s 666 mmHg 81%
09:00 +24°C° 0.1 mm 1 m/s 666 mmHg 78%
10:00 +25°C° 0.3 mm 1 m/s 666 mmHg 73%
11:00 +26°C° 0.3 mm 2 m/s 666 mmHg 68%
12:00 +27°C° 0.3 mm 2 m/s 666 mmHg 63%
13:00 +27°C° 0.2 mm 2 m/s 666 mmHg 62%
14:00 +28°C° 0.2 mm 3 m/s 665 mmHg 61%
15:00 +28°C° 0.2 mm 3 m/s 664 mmHg 60%
16:00 +27°C° 0.7 mm 2 m/s 664 mmHg 68%
17:00 +26°C° 0.7 mm 2 m/s 664 mmHg 75%
18:00 +24°C° 0.7 mm 2 m/s 663 mmHg 82%
19:00 +23°C° 1 mm 1 m/s 664 mmHg 84%
20:00 +22°C° 1 mm 1 m/s 664 mmHg 85%
21:00 +19°C° 1 mm 0 m/s 664 mmHg 87%
22:00 +19°C° 0.6 mm 0 m/s 664 mmHg 87%
23:00 +19°C° 0.6 mm 0 m/s 665 mmHg 87%

7 Março, Domingo

Tempo Temperatura Precipitação Vento Pressão Humidade
00:00 +19°C° 0.6 mm 0 m/s 665 mmHg 87%
01:00 +19°C° 0.2 mm 0 m/s 664 mmHg 88%
02:00 +19°C° 0.2 mm 0 m/s 664 mmHg 88%
03:00 +20°C° 0.2 mm 1 m/s 664 mmHg 88%
04:00 +18°C° 0.3 mm 0 m/s 664 mmHg 88%
05:00 +18°C° 0.3 mm 0 m/s 664 mmHg 88%
06:00 +18°C° 0.3 mm 0 m/s 664 mmHg 88%
07:00 +20°C° 0.3 mm 0 m/s 665 mmHg 84%
08:00 +21°C° 0.3 mm 0 m/s 666 mmHg 80%
09:00 +25°C° 0.3 mm 1 m/s 667 mmHg 76%
10:00 +25°C° 1.3 mm 1 m/s 667 mmHg 75%
11:00 +26°C° 1.3 mm 2 m/s 667 mmHg 74%
12:00 +26°C° 1.3 mm 2 m/s 666 mmHg 73%
13:00 +26°C° 1.6 mm 3 m/s 666 mmHg 74%
14:00 +26°C° 1.6 mm 3 m/s 665 mmHg 75%
15:00 +26°C° 1.6 mm 3 m/s 665 mmHg 76%
16:00 +25°C° 1.2 mm 3 m/s 665 mmHg 80%
17:00 +23°C° 1.2 mm 2 m/s 664 mmHg 85%
18:00 +21°C° 1.2 mm 2 m/s 664 mmHg 89%
19:00 +20°C° 0.4 mm 2 m/s 665 mmHg 90%
20:00 +20°C° 0.4 mm 2 m/s 665 mmHg 91%
21:00 +20°C° 0.4 mm 2 m/s 665 mmHg 92%
22:00 +21°C° 0 mm 1 m/s 665 mmHg 92%
23:00 +21°C° 0 mm 1 m/s 665 mmHg 92%

8 Março, Segunda-feira

Tempo Temperatura Precipitação Vento Pressão Humidade
00:00 +18°C° 0 mm 0 m/s 666 mmHg 92%
01:00 +18°C° 0.1 mm 0 m/s 665 mmHg 92%
02:00 +18°C° 0.1 mm 0 m/s 665 mmHg 92%
03:00 +18°C° 0.1 mm 0 m/s 665 mmHg 92%
04:00 +18°C° 0.1 mm 0 m/s 665 mmHg 91%
05:00 +18°C° 0.1 mm 0 m/s 665 mmHg 91%
06:00 +18°C° 0.1 mm 0 m/s 665 mmHg 91%
07:00 +19°C° 0.1 mm 0 m/s 665 mmHg 89%
08:00 +20°C° 0.1 mm 0 m/s 666 mmHg 87%
09:00 +21°C° 0.1 mm 0 m/s 667 mmHg 85%
10:00 +23°C° 0.9 mm 0 m/s 667 mmHg 78%
11:00 +26°C° 0.9 mm 1 m/s 667 mmHg 71%
12:00 +28°C° 0.9 mm 1 m/s 667 mmHg 64%
13:00 +28°C° 1.4 mm 1 m/s 666 mmHg 67%
14:00 +27°C° 1.4 mm 2 m/s 666 mmHg 69%
15:00 +27°C° 1.4 mm 2 m/s 665 mmHg 71%
16:00 +26°C° 1 mm 2 m/s 665 mmHg 75%
17:00 +25°C° 1 mm 1 m/s 664 mmHg 78%
18:00 +24°C° 1 mm 1 m/s 664 mmHg 82%
19:00 +23°C° 0.7 mm 1 m/s 664 mmHg 83%
20:00 +22°C° 0.7 mm 1 m/s 665 mmHg 84%
21:00 +22°C° 0.7 mm 1 m/s 665 mmHg 86%
22:00 +21°C° 0.1 mm 1 m/s 665 mmHg 87%
23:00 +21°C° 0.1 mm 1 m/s 665 mmHg 87%
Mostrar mais